Location: Newark
(44.2764°N, 5.2753°E)
Time: 02:15:48
(UTC+00:00)

X-37B - Pass Details

Date: 11 March 2021
Orbit: 380 x 394 km, 45.0° (Epoch: 07 April)

Event Time Altitude Azimuth Distance (km) Brightness Sun altitude
Rises 19:14:11 0° 226° (SW) 2,263 4.9 -17.5°
Reaches altitude 10° 19:16:23 10° 216° (SW) 1,414 3.7 -17.9°
Enters shadow 19:18:24 26° 182° (S) 811 2.0 -18.3°
